Time,TemperatureF,DewpointF,PressureIn,WindDirection,WindDirectionDegrees,WindSpeedMPH,WindSpeedGustMPH,Humidity,HourlyPrecipIn,Conditions,Clouds,dailyrainin,SoftwareType,DateUTC
2013-06-19 00:10:00,55.4,49.0,30.01,West,268,0.0,-999.0,78,-99.99,,,0.00,weatherlink.com 1.10,2013-06-19 07:10:00,
2013-06-19 00:25:00,55.3,49.0,30.02,SE,125,0.0,-999.0,78,-99.99,,,0.00,weatherlink.com 1.10,2013-06-19 07:25:00,
2013-06-19 00:40:00,55.0,48.0,30.02,South,169,0.0,-999.0,78,-99.99,,,0.00,weatherlink.com 1.10,2013-06-19 07:40:00,
2013-06-19 00:55:00,54.8,48.0,30.02,SSE,167,1.0,-999.0,78,-99.99,,,0.00,weatherlink.com 1.10,2013-06-19 07:55:00,
2013-06-19 01:10:00,54.8,48.0,30.02,SSE,155,0.0,-999.0,78,-99.99,,,0.00,weatherlink.com 1.10,2013-06-19 08:10:00,
2013-06-19 01:25:00,54.2,48.0,30.02,SSE,155,0.0,-999.0,79,-99.99,,,0.00,weatherlink.com 1.10,2013-06-19 08:25:00,
2013-06-19 01:40:00,53.8,48.0,30.02,SSE,155,0.0,-999.0,80,-99.99,,,0.00,weatherlink.com 1.10,2013-06-19 08:40:00,
2013-06-19 01:55:00,53.3,48.0,30.01,SSE,155,0.0,-999.0,81,-99.99,,,0.00,weatherlink.com 1.10,2013-06-19 08:55:00,
2013-06-19 02:10:00,52.9,48.0,30.01,SSE,155,0.0,-999.0,82,-99.99,,,0.00,weatherlink.com 1.10,2013-06-19 09:10:00,
2013-06-19 02:25:00,52.5,47.0,30.01,SSE,155,1.0,-999.0,82,-99.99,,,0.00,weatherlink.com 1.10,2013-06-19 09:25:00,
2013-06-19 02:40:00,52.0,47.0,30.01,SSE,155,0.0,-999.0,83,-99.99,,,0.00,weatherlink.com 1.10,2013-06-19 09:40:00,
2013-06-19 02:55:00,51.7,47.0,30.01,SSE,155,0.0,-999.0,83,-99.99,,,0.00,weatherlink.com 1.10,2013-06-19 09:55:00,
2013-06-19 03:10:00,51.6,47.0,30.01,SSE,154,0.0,-999.0,84,-99.99,,,0.00,weatherlink.com 1.10,2013-06-19 10:10:00,
2013-06-19 03:25:00,51.6,47.0,30.01,SSE,155,0.0,-999.0,84,-99.99,,,0.00,weatherlink.com 1.10,2013-06-19 10:25:00,
2013-06-19 03:41:00,51.3,47.0,30.01,SSE,155,0.0,-999.0,84,-99.99,,,0.00,weatherlink.com 1.10,2013-06-19 10:41:00,
2013-06-19 03:56:00,51.1,47.0,30.01,SSE,155,0.0,-999.0,85,-99.99,,,0.00,weatherlink.com 1.10,2013-06-19 10:56:00,
2013-06-19 04:11:00,51.0,47.0,30.02,SSE,155,0.0,-999.0,85,-99.99,,,0.00,weatherlink.com 1.10,2013-06-19 11:11:00,
2013-06-19 04:26:00,50.8,47.0,30.01,SSE,155,0.0,-999.0,86,-99.99,,,0.00,weatherlink.com 1.10,2013-06-19 11:26:00,
2013-06-19 04:41:00,51.0,47.0,30.01,SSE,155,0.0,-999.0,86,-99.99,,,0.00,weatherlink.com 1.10,2013-06-19 11:41:00,
2013-06-19 04:56:00,50.7,47.0,30.01,SSE,155,0.0,-999.0,86,-99.99,,,0.00,weatherlink.com 1.10,2013-06-19 11:56:00,
2013-06-19 05:11:00,50.5,47.0,30.01,SSE,155,0.0,-999.0,87,-99.99,,,0.00,weatherlink.com 1.10,2013-06-19 12:11:00,
2013-06-19 05:26:00,50.4,47.0,30.01,SSE,155,0.0,-999.0,87,-99.99,,,0.00,weatherlink.com 1.10,2013-06-19 12:26:00,
2013-06-19 05:41:00,50.1,46.0,30.01,SSE,155,0.0,-999.0,87,-99.99,,,0.00,weatherlink.com 1.10,2013-06-19 12:41:00,
2013-06-19 05:56:00,49.8,46.0,30.01,SSE,155,0.0,-999.0,87,-99.99,,,0.00,weatherlink.com 1.10,2013-06-19 12:56:00,
2013-06-19 06:11:00,49.8,46.0,30.01,SSE,155,0.0,-999.0,87,-99.99,,,0.00,weatherlink.com 1.10,2013-06-19 13:11:00,
2013-06-19 06:26:00,49.6,46.0,30.02,SSE,155,0.0,-999.0,88,-99.99,,,0.00,weatherlink.com 1.10,2013-06-19 13:26:00,
2013-06-19 06:41:00,49.8,46.0,30.02,SSE,155,0.0,-999.0,88,-99.99,,,0.00,weatherlink.com 1.10,2013-06-19 13:41:00,
2013-06-19 06:56:00,50.1,47.0,30.03,SSE,155,0.0,-999.0,88,-99.99,,,0.00,weatherlink.com 1.10,2013-06-19 13:56:00,
2013-06-19 07:11:00,50.8,47.0,30.03,SSE,155,0.0,-999.0,88,-99.99,,,0.00,weatherlink.com 1.10,2013-06-19 14:11:00,
2013-06-19 07:26:00,51.9,48.0,30.03,SSE,155,0.0,-999.0,87,-99.99,,,0.00,weatherlink.com 1.10,2013-06-19 14:26:00,
2013-06-19 07:41:00,53.9,49.0,30.04,SSE,155,0.0,-999.0,83,-99.99,,,0.00,weatherlink.com 1.10,2013-06-19 14:41:00,
2013-06-19 07:56:00,56.6,49.0,30.04,WNW,291,0.0,-999.0,77,-99.99,,,0.00,weatherlink.com 1.10,2013-06-19 14:56:00,
2013-06-19 08:11:00,59.0,48.0,30.04,WNW,296,0.0,-999.0,68,-99.99,,,0.00,weatherlink.com 1.10,2013-06-19 15:11:00,
2013-06-19 08:26:00,60.4,48.0,30.04,West,267,0.0,-999.0,64,-99.99,,,0.00,weatherlink.com 1.10,2013-06-19 15:26:00,
2013-06-19 08:41:00,61.6,47.0,30.04,ENE,66,1.0,-999.0,59,-99.99,,,0.00,weatherlink.com 1.10,2013-06-19 15:41:00,
2013-06-19 08:56:00,62.4,46.0,30.04,West,281,0.0,-999.0,55,-99.99,,,0.00,weatherlink.com 1.10,2013-06-19 15:56:00,
2013-06-19 09:11:00,63.2,47.0,30.04,WNW,285,0.0,-999.0,55,-99.99,,,0.00,weatherlink.com 1.10,2013-06-19 16:11:00,
2013-06-19 09:26:00,64.0,46.0,30.05,West,281,0.0,-999.0,53,-99.99,,,0.00,weatherlink.com 1.10,2013-06-19 16:26:00,
2013-06-19 09:41:00,65.0,46.0,30.05,West,275,0.0,-999.0,51,-99.99,,,0.00,weatherlink.com 1.10,2013-06-19 16:41:00,
2013-06-19 09:56:00,65.8,46.0,30.05,WNW,301,0.0,-999.0,49,-99.99,,,0.00,weatherlink.com 1.10,2013-06-19 16:56:00,
2013-06-19 10:11:00,66.0,46.0,30.04,SW,235,3.0,-999.0,48,-99.99,,,0.00,weatherlink.com 1.10,2013-06-19 17:11:00,
2013-06-19 10:26:00,67.1,47.0,30.04,WSW,244,0.0,-999.0,49,-99.99,,,0.00,weatherlink.com 1.10,2013-06-19 17:26:00,
2013-06-19 10:41:00,68.1,48.0,30.05,NE,41,1.0,-999.0,48,-99.99,,,0.00,weatherlink.com 1.10,2013-06-19 17:41:00,
2013-06-19 10:56:00,68.4,48.0,30.05,South,188,1.0,-999.0,48,-99.99,,,0.00,weatherlink.com 1.10,2013-06-19 17:56:00,
2013-06-19 11:11:00,67.9,47.0,30.05,SW,234,0.0,-999.0,48,-99.99,,,0.00,weatherlink.com 1.10,2013-06-19 18:11:00,
2013-06-19 11:26:00,69.4,48.0,30.05,WSW,241,4.0,-999.0,47,-99.99,,,0.00,weatherlink.com 1.10,2013-06-19 18:26:00,
2013-06-19 11:41:00,69.6,47.0,30.05,WNW,289,0.0,-999.0,45,-99.99,,,0.00,weatherlink.com 1.10,2013-06-19 18:41:00,
2013-06-19 11:56:00,70.9,49.0,30.05,ENE,63,0.0,-999.0,46,-99.99,,,0.00,weatherlink.com 1.10,2013-06-19 18:56:00,
2013-06-19 12:11:00,71.8,49.0,30.05,WSW,245,0.0,-999.0,44,-99.99,,,0.00,weatherlink.com 1.10,2013-06-19 19:11:00,
2013-06-19 12:26:00,71.3,49.0,30.05,SSW,213,2.0,-999.0,45,-99.99,,,0.00,weatherlink.com 1.10,2013-06-19 19:26:00,
2013-06-19 12:42:00,70.8,47.0,30.05,SW,221,0.0,-999.0,43,-99.99,,,0.00,weatherlink.com 1.10,2013-06-19 19:42:00,
2013-06-19 12:56:00,71.8,48.0,30.05,SSW,209,1.0,-999.0,43,-99.99,,,0.00,weatherlink.com 1.10,2013-06-19 19:56:00,
2013-06-19 13:11:00,71.5,48.0,30.04,WSW,245,1.0,-999.0,43,-99.99,,,0.00,weatherlink.com 1.10,2013-06-19 20:11:00,
2013-06-19 13:26:00,71.5,47.0,30.04,SSE,148,0.0,-999.0,42,-99.99,,,0.00,weatherlink.com 1.10,2013-06-19 20:26:00,
2013-06-19 13:41:00,70.8,48.0,30.04,SW,227,1.0,-999.0,44,-99.99,,,0.00,weatherlink.com 1.10,2013-06-19 20:41:00,
2013-06-19 13:57:00,72.5,48.0,30.04,South,189,0.0,-999.0,42,-99.99,,,0.00,weatherlink.com 1.10,2013-06-19 20:57:00,
2013-06-19 14:12:00,72.3,48.0,30.04,SW,225,0.0,-999.0,42,-99.99,,,0.00,weatherlink.com 1.10,2013-06-19 21:12:00,
2013-06-19 14:27:00,72.8,50.0,30.04,SSE,150,4.0,-999.0,45,-99.99,,,0.00,weatherlink.com 1.10,2013-06-19 21:27:00,
2013-06-19 14:42:00,73.5,50.0,30.03,WSW,241,3.0,-999.0,43,-99.99,,,0.00,weatherlink.com 1.10,2013-06-19 21:42:00,
2013-06-19 14:57:00,73.5,49.0,30.03,SSE,155,0.0,-999.0,42,-99.99,,,0.00,weatherlink.com 1.10,2013-06-19 21:57:00,
2013-06-19 15:12:00,73.5,50.0,30.03,SE,132,0.0,-999.0,43,-99.99,,,0.00,weatherlink.com 1.10,2013-06-19 22:12:00,
2013-06-19 15:27:00,74.4,50.0,30.03,SW,222,0.0,-999.0,42,-99.99,,,0.00,weatherlink.com 1.10,2013-06-19 22:27:00,
2013-06-19 15:42:00,74.2,50.0,30.02,SW,235,3.0,-999.0,42,-99.99,,,0.00,weatherlink.com 1.10,2013-06-19 22:42:00,
2013-06-19 15:57:00,75.3,51.0,30.02,WSW,254,3.0,-999.0,42,-99.99,,,0.00,weatherlink.com 1.10,2013-06-19 22:57:00,
2013-06-19 16:12:00,76.0,50.0,30.02,SSW,202,1.0,-999.0,40,-99.99,,,0.00,weatherlink.com 1.10,2013-06-19 23:12:00,
2013-06-19 16:27:00,76.0,48.0,30.01,SW,236,3.0,-999.0,37,-99.99,,,0.00,weatherlink.com 1.10,2013-06-19 23:27:00,
2013-06-19 16:42:00,75.3,49.0,30.01,SW,228,2.0,-999.0,40,-99.99,,,0.00,weatherlink.com 1.10,2013-06-19 23:42:00,
2013-06-19 16:57:00,75.4,48.0,30.01,SW,223,2.0,-999.0,38,-99.99,,,0.00,weatherlink.com 1.10,2013-06-19 23:57:00,
2013-06-19 17:12:00,75.1,48.0,30.01,South,181,0.0,-999.0,38,-99.99,,,0.00,weatherlink.com 1.10,2013-06-20 00:12:00,
2013-06-19 17:27:00,74.6,49.0,30.01,SSW,200,0.0,-999.0,40,-99.99,,,0.00,weatherlink.com 1.10,2013-06-20 00:27:00,
2013-06-19 17:42:00,74.7,49.0,30.01,SW,227,0.0,-999.0,41,-99.99,,,0.00,weatherlink.com 1.10,2013-06-20 00:42:00,
2013-06-19 17:57:00,75.4,43.0,30.01,SW,232,1.0,-999.0,32,-99.99,,,0.00,weatherlink.com 1.10,2013-06-20 00:57:00,
2013-06-19 18:12:00,76.0,45.0,30.00,WSW,254,0.0,-999.0,33,-99.99,,,0.00,weatherlink.com 1.10,2013-06-20 01:12:00,
2013-06-19 18:42:00,74.2,45.0,30.00,West,263,0.0,-999.0,36,-99.99,,,0.00,weatherlink.com 1.10,2013-06-20 01:42:00,
2013-06-19 18:57:00,74.2,45.0,30.00,West,269,0.0,-999.0,35,-99.99,,,0.00,weatherlink.com 1.10,2013-06-20 01:57:00,
2013-06-19 19:12:00,72.7,45.0,30.01,NW,308,3.0,-999.0,37,-99.99,,,0.00,weatherlink.com 1.10,2013-06-20 02:12:00,
2013-06-19 19:27:00,70.4,44.0,30.01,West,281,2.0,-999.0,39,-99.99,,,0.00,weatherlink.com 1.10,2013-06-20 02:27:00,
2013-06-19 19:42:00,68.3,44.0,30.01,West,263,0.0,-999.0,42,-99.99,,,0.00,weatherlink.com 1.10,2013-06-20 02:42:00,
2013-06-19 19:57:00,66.6,44.0,30.02,West,263,0.0,-999.0,45,-99.99,,,0.00,weatherlink.com 1.10,2013-06-20 02:57:00,
2013-06-19 20:12:00,65.0,45.0,30.02,NNE,24,0.0,-999.0,48,-99.99,,,0.00,weatherlink.com 1.10,2013-06-20 03:12:00,
2013-06-19 20:27:00,63.5,45.0,30.02,SSW,200,0.0,-999.0,52,-99.99,,,0.00,weatherlink.com 1.10,2013-06-20 03:27:00,
2013-06-19 20:42:00,62.6,45.0,30.02,SSW,200,0.0,-999.0,53,-99.99,,,0.00,weatherlink.com 1.10,2013-06-20 03:42:00,
2013-06-19 20:57:00,61.6,45.0,30.02,SSW,212,0.0,-999.0,55,-99.99,,,0.00,weatherlink.com 1.10,2013-06-20 03:57:00,
2013-06-19 21:12:00,60.7,45.0,30.02,West,269,0.0,-999.0,57,-99.99,,,0.00,weatherlink.com 1.10,2013-06-20 04:12:00,
2013-06-19 21:27:00,60.1,45.0,30.02,West,269,0.0,-999.0,58,-99.99,,,0.00,weatherlink.com 1.10,2013-06-20 04:27:00,
2013-06-19 21:42:00,59.8,46.0,30.02,WNW,286,0.0,-999.0,60,-99.99,,,0.00,weatherlink.com 1.10,2013-06-20 04:42:00,
2013-06-19 21:57:00,59.5,46.0,30.02,SW,234,0.0,-999.0,62,-99.99,,,0.00,weatherlink.com 1.10,2013-06-20 04:57:00,
2013-06-19 22:12:00,59.0,47.0,30.02,WNW,298,0.0,-999.0,64,-99.99,,,0.00,weatherlink.com 1.10,2013-06-20 05:12:00,
2013-06-19 22:27:00,58.7,47.0,30.02,WNW,288,0.0,-999.0,65,-99.99,,,0.00,weatherlink.com 1.10,2013-06-20 05:27:00,
2013-06-19 22:42:00,58.3,47.0,30.02,WNW,288,0.0,-999.0,66,-99.99,,,0.00,weatherlink.com 1.10,2013-06-20 05:42:00,
2013-06-19 22:57:00,57.8,47.0,30.02,WNW,288,0.0,-999.0,67,-99.99,,,0.00,weatherlink.com 1.10,2013-06-20 05:57:00,
2013-06-19 23:12:00,57.2,47.0,30.02,WNW,288,0.0,-999.0,68,-99.99,,,0.00,weatherlink.com 1.10,2013-06-20 06:12:00,
2013-06-19 23:27:00,56.6,47.0,30.02,WNW,288,0.0,-999.0,70,-99.99,,,0.00,weatherlink.com 1.10,2013-06-20 06:27:00,
2013-06-19 23:42:00,56.2,47.0,30.02,WNW,288,0.0,-999.0,71,-99.99,,,0.00,weatherlink.com 1.10,2013-06-20 06:42:00,
2013-06-19 23:57:00,55.7,47.0,30.02,WNW,288,0.0,-999.0,72,-99.99,,,0.00,weatherlink.com 1.10,2013-06-20 06:57:00,